Location: Friaudour
(46.0460°N, 1.2873°E)
Time: 10:54:41
(UTC+00:00)

Cosmos 1900 - Pass Details

Date: 14 July 2020
Orbit: 682 x 740 km, 66.1° (Epoch: 05 August)

Event Time Altitude Azimuth Distance (km) Brightness Sun altitude
Exits shadow 02:29:33 22° 207° (SSW) 1,482 5.4 -14.4°
Maximum altitude 02:32:41 80° 122° (ESE) 717 4.3 -14.1°
Drops below altitude 10° 02:37:41 10° 36° (NE) 2,194 8.4 -13.6°
Sets 02:40:03 0° 36° (NE) 3,127 9.7 -13.3°
